Location: Peebles
(55.6412°N, 3.1714°W)
Time: 06:06:51
(UTC+01:00)

OBJECT A - Pass Details

Date: 06 July 2022
Orbit: 611 x 632 km, 97.9° (Epoch: 10 August)

Event Time Altitude Azimuth Distance (km) Brightness Sun altitude
Exits shadow 23:42:09 - 184° (S) 2,049 ? -9.2°
Reaches altitude 10° 23:42:18 10° 184° (S) 1,989 ? -9.2°
Maximum altitude 23:46:30 49° 260° (W) 804 ? -9.4°
Drops below altitude 10° 23:50:43 10° 336° (NNW) 1,992 ? -9.6°
Sets 23:52:58 0° 342° (NNW) 2,900 ? -9.7°
